Location: Zagreb
(45.8000°N, 16.0000°E)
Time: 15:12:56
(UTC+02:00)

Tiros 1 despin weight - Pass Details

Date: 09 August 2022
Orbit: 590 x 639 km, 48.2° (Epoch: 23 September)

Event Time Altitude Azimuth Distance (km) Brightness Sun altitude
Rises 19:20:52 0° 289° (WNW) 2,822 ? 7.9°
Reaches altitude 10° 19:23:13 10° 283° (WNW) 1,918 ? 7.5°
Maximum altitude 19:27:25 47° 210° (SSW) 786 ? 6.8°
Drops below altitude 10° 19:31:38 10° 137° (SE) 1,918 ? 6.1°
Sets 19:33:58 0° 131° (SE) 2,822 ? 5.7°
